#timestamp,LO_Frequency,Hit,StdDev 
1663027215.5,286046996.6,N
1663027235.4,286046997.3,N
1663027255.2,286046997.3,N
1663027275.0,286046995.1,N
1663027275.9,286046995.1,N
1663027295.8,286046997.8,N
1663027315.6,286046997.1,N
1663027335.4,286046997.8,N
1663027355.3,286046997.4,N
1663027375.1,286046997.5,N
1663027395.9,286046997.5,N
1663027415.7,286046995.5,N
1663027435.5,286046995.8,N
1663027455.4,286046995.7,N
1663027475.2,286046996.4,N
1663027495.0,286046995.6,N
1663027495.9,286046995.6,N
1663027515.8,286046993.4,N
1663027535.6,286046994.6,N
1663027555.5,286046994.8,N
1663027575.3,286046993.5,Y
1663027595.1,286046997.3,P
1663027615.9,286046997.7,P
1663027635.7,286046995.6,P
1663027655.6,286046996.4,Y
1663027675.4,286046997.0,P
1663027695.2,286046996.6,P
1663027715.1,286046997.4,P
1663027716.0,286046997.4,Y
1663027735.8,286047000.8,P
1663027755.7,286046998.7,N
1663027775.5,286046998.5,N
1663027795.3,286047000.3,N
1663027815.2,286047001.0,N
1663027835.0,286047000.9,N
1663027835.9,286047000.9,N
1663027855.7,286047000.2,N
1663027875.6,286047002.7,N
1663027895.4,286047002.8,N
1663027915.3,286047002.8,N
1663027935.1,286047000.4,N
1663027936.0,286047000.4,N
1663027955.8,286046998.1,N
1663027975.7,286046998.1,N
1663027995.5,286046998.8,N
1663028015.4,286046998.9,N
1663028035.2,286046999.1,N
1663028055.0,286046999.5,N
1663028055.9,286046999.5,N
1663028075.8,286046998.4,N
1663028095.6,286046998.3,N
1663028115.4,286046998.9,N
1663028135.3,286046999.4,N
1663028155.1,286046998.8,N
1663028175.9,286046999.2,N
1663028195.7,286046998.2,N
1663028215.5,286046998.8,N
1663028235.4,286046998.9,N
1663028255.2,286046998.2,N
1663028275.0,286046999.3,N
1663028275.9,286046999.3,N
1663028295.8,286046998.4,N
1663028315.6,286046998.9,N
1663028335.5,286046998.4,N
1663028355.3,286046999.6,N
1663028375.1,286046998.7,N
1663028395.9,286046999.2,N
1663028415.7,286046996.5,N
1663028435.5,286046997.4,N
1663028455.4,286046995.4,Y
1663028475.2,286046999.3,P
1663028495.1,286046999.3,P
1663028496.0,286046999.3,P
1663028515.8,286046996.9,Y
1663028535.6,286046998.4,P
1663028555.5,286046998.9,N
1663028575.3,286046999.0,P
1663028595.2,286046998.6,Y
1663028615.9,286046999.9,P
1663028635.0,286046998.2,P
1663028635.9,286046998.2,N
1663028655.8,286047001.0,N
1663028675.6,286047001.2,N
1663028695.5,286047000.9,N
1663028715.3,286047000.7,N
1663028735.1,286047000.5,N
1663028755.9,286047001.1,N
1663028775.7,286047001.2,N
1663028795.5,286046998.5,N
1663028815.4,286046999.1,N
1663028835.2,286046999.4,N
1663028855.1,286046999.3,N
1663028856.0,286046999.3,N
1663028875.8,286047000.8,N
1663028895.6,286046998.5,N
1663028915.5,286046998.1,N
1663028935.3,286047001.2,N
1663028955.1,286046998.7,N
1663028975.9,286046998.6,N
1663028995.7,286046998.4,N
1663029015.6,286046998.9,N
1663029035.4,286046998.5,N
1663029055.2,286046998.5,N
1663029075.1,286046998.5,N
1663029076.0,286046998.5,N
1663029095.8,286046999.4,N
1663029115.7,286046999.2,N
1663029135.5,286046999.0,N
1663029155.3,286046999.4,N
1663029175.2,286046999.5,N
1663029195.0,286046999.6,N
1663029195.9,286046999.6,N
1663029215.8,286046998.5,N
1663029235.6,286046998.7,N
1663029255.4,286046999.1,N
1663029275.3,286046998.7,N
1663029295.1,286046999.1,N
1663029315.9,286046996.5,Y
1663029335.7,286046998.2,P
1663029355.5,286046999.3,N
1663029375.4,286046998.4,P
1663029395.2,286046999.0,N
1663029415.1,286046998.2,Y
1663029416.0,286046998.2,P
1663029435.8,286047002.4,P
1663029455.6,286047002.6,N
1663029475.5,286047001.9,N
1663029495.3,286047002.0,N
1663029515.2,286047002.4,N
1663029535.9,286047002.5,N
1663029555.7,286047002.3,N
1663029575.6,286046999.7,N
1663029595.4,286047002.5,N
1663029615.2,286047002.2,N
1663029635.1,286047002.4,N
1663029636.0,286047002.4,N
1663029655.8,286046999.8,N
1663029675.7,286047002.7,N
1663029695.5,286046999.9,N
1663029715.4,286046999.7,N
1663029735.2,286047002.8,N
1663029755.0,286047000.4,N
1663029755.9,286047000.4,N
1663029775.8,286047000.4,N
1663029795.6,286047002.4,N
1663029815.4,286047000.2,N
1663029835.3,286047000.0,N
1663029855.1,286047000.5,N
1663029875.9,286047000.6,N
1663029895.7,286047001.1,N
1663029915.5,286046998.2,N
1663029935.4,286046998.8,N
1663029955.2,286047000.5,N
1663029975.0,286047000.2,N
1663029975.9,286047000.2,N
1663029995.8,286047000.4,N
1663030015.6,286047000.9,N
1663030035.5,286047002.7,N
1663030055.3,286047002.8,N
1663030075.1,286047002.3,N
1663030095.9,286047002.8,N
1663030115.7,286047002.7,N
1663030135.5,286047002.1,N
1663030155.4,286047002.5,N
1663030175.2,286047002.0,N
1663030195.1,286047001.9,N
1663030196.0,286047001.9,N
1663030215.8,286047002.7,N
1663030235.6,286047002.2,N
1663030255.5,286047002.8,N
1663030275.3,286047002.7,N
1663030295.2,286046999.7,N
1663030315.9,286047002.1,N
1663030335.7,286047002.5,N
1663030355.6,286047001.6,N
1663030375.4,286047001.4,N
1663030395.2,286047004.4,Y
1663030415.1,286047002.3,P
1663030416.0,286047002.3,P
1663030435.8,286047000.3,N
1663030455.7,286047002.1,N
1663030475.5,286047002.6,Y
1663030495.3,286047000.0,P
1663030515.2,286047011.9,P
1663030535.0,286046998.4,N
1663030535.9,286046998.4,N
1663030555.8,286046998.1,N
1663030575.6,286047000.6,N
1663030595.4,286047000.0,N
1663030615.3,286046998.1,N
1663030635.1,286046999.1,N
1663030655.8,286046996.6,N
1663030675.7,286046998.7,N
1663030695.5,286046998.2,N
1663030715.4,286046998.5,N
1663030735.2,286047000.5,N
1663030755.0,286047000.5,N
1663030755.9,286047000.5,N
1663030775.8,286047000.0,N
1663030795.6,286046999.7,N
